#timestamp,LO_Frequency,Hit,StdDev 
1617376015.6,286047011.4,P
1617376035.4,286047012.3,P
1617376055.3,286047009.3,P
1617376075.1,286047009.5,Y
1617376095.9,286046998.8,P
1617376115.7,286046995.0,N
1617376135.5,286046998.0,N
1617376155.4,286046997.7,N
1617376175.2,286046996.6,N
1617376195.0,286046997.7,N
1617376195.9,286046997.7,N
1617376215.8,286046998.9,N
1617376235.6,286046999.9,N
1617376255.5,286047001.5,N
1617376275.3,286047004.3,N
1617376295.1,286047004.0,N
1617376315.9,286047000.3,N
1617376335.7,286046998.9,N
1617376355.5,286046998.8,N
1617376375.4,286046999.5,N
1617376395.2,286046997.5,N
1617376415.0,286046997.6,N
1617376416.0,286046997.6,N
1617376435.8,286046997.8,N
1617376455.6,286046997.4,N
1617376475.5,286046997.2,N
1617376495.3,286046999.2,N
1617376515.1,286046996.9,N
1617376535.9,286046994.9,N
1617376555.7,286046995.2,N
1617376575.6,286046998.0,N
1617376595.4,286046997.4,N
1617376615.2,286046997.0,N
1617376635.1,286046997.9,N
1617376636.0,286046997.9,N
1617376655.8,286046997.6,N
1617376675.6,286046997.6,N
1617376695.5,286046997.8,N
1617376715.3,286046998.0,N
1617376735.2,286046996.3,N
1617376755.9,286046997.4,N
1617376775.7,286046996.5,N
1617376795.6,286046998.4,N
1617376815.4,286047001.0,N
1617376835.2,286046998.1,N
1617376855.1,286047001.0,N
1617376856.0,286047001.0,N
1617376875.8,286047000.1,N
1617376895.7,286046999.7,N
1617376915.5,286047003.8,N
1617376935.3,286047003.5,N
1617376955.2,286047002.0,N
1617376975.0,286047002.7,N
1617376975.9,286047002.7,N
1617376995.7,286047000.1,N
1617377015.6,286047001.8,N
1617377035.4,286047005.6,N
1617377055.3,286047006.0,N
1617377075.1,286047005.6,N
1617377076.0,286047005.6,N
1617377095.8,286047007.4,N
1617377115.7,286047006.6,N
1617377135.5,286047006.2,N
1617377155.3,286047006.1,N
1617377175.2,286047006.2,N
1617377195.0,286047006.4,N
1617377195.9,286047006.4,N
1617377215.8,286047006.2,N
1617377235.6,286047006.9,N
1617377255.4,286047007.1,N
1617377275.3,286047007.6,N
1617377295.1,286047005.8,N
1617377315.9,286047005.5,N
1617377335.7,286047007.0,N
1617377355.5,286047007.2,N
1617377375.4,286047005.0,N
1617377395.2,286047003.2,N
1617377415.0,286047001.5,N
1617377415.9,286047001.5,N
1617377435.8,286047002.0,N
1617377455.6,286047002.0,N
1617377475.5,286047001.7,N
1617377495.3,286047004.2,N
1617377515.1,286047001.7,N
1617377535.9,286047002.5,N
1617377555.7,286047002.6,N
1617377575.5,286047001.9,N
1617377595.4,286047004.4,N
1617377615.2,286047003.1,N
1617377635.1,286047005.7,N
1617377636.0,286047005.7,N
1617377655.8,286047007.1,Y
1617377675.6,286047002.5,P
1617377695.5,286047001.5,N
1617377715.3,286047004.1,P
1617377735.2,286047004.4,Y
1617377755.9,286046998.5,P
1617377775.7,286047001.0,N
1617377795.6,286047001.1,N
1617377815.4,286047001.2,N
1617377835.2,286046998.9,N
1617377855.1,286046999.1,N
1617377856.0,286046999.1,N
1617377875.8,286046997.9,N
1617377895.7,286046995.7,N
1617377915.5,286046995.9,N
1617377935.3,286046996.4,N
1617377955.2,286046995.0,N
1617377975.0,286046997.4,N
1617377975.9,286046997.4,N
1617377995.7,286046997.6,N
1617378015.6,286046998.0,N
1617378035.4,286046997.6,N
1617378055.3,286046994.9,N
1617378075.1,286046997.1,N
1617378076.0,286046997.1,N
1617378095.8,286046999.2,N
1617378115.7,286046999.5,N
1617378135.5,286046998.7,N
1617378155.3,286047001.2,N
1617378175.2,286047000.5,N
1617378195.0,286047000.3,N
1617378195.9,286047000.3,N
1617378215.8,286047000.3,N
1617378235.6,286047000.3,N
1617378255.4,286047002.3,N
1617378275.3,286047002.1,N
1617378295.1,286046999.9,N
1617378315.8,286046999.9,N
1617378335.7,286046999.7,N
1617378355.5,286047000.5,N
1617378375.4,286046998.7,N
1617378395.2,286047002.5,N
1617378415.0,286047000.4,N
1617378415.9,286047000.4,N
1617378435.8,286046998.2,N
1617378455.6,286047000.5,N
1617378475.4,286047002.8,N
1617378495.3,286047002.8,N
1617378515.1,286047002.0,N
1617378535.9,286047002.5,N
1617378555.7,286046998.1,N
1617378575.5,286046999.9,N
1617378595.4,286047000.7,N
1617378615.2,286046998.4,N
1617378635.0,286047000.8,N
1617378635.9,286047000.8,N
1617378655.8,286046998.1,N
1617378675.6,286046998.6,N
1617378695.5,286046999.2,N
1617378715